Location: Holbach
(51.5399°N, 10.6036°E)
Time: 00:39:18
(UTC+00:00)

Cosmos 1844 - Pass Details

Date: 18 September 2020
Orbit: 824 x 866 km, 70.9° (Epoch: 23 October)

Event Time Altitude Azimuth Distance (km) Brightness Sun altitude
Rises 19:27:30 0° 191° (S) 3,412 6.7 -19.1°
Reaches altitude 10° 19:30:00 10° 187° (S) 2,474 5.9 -19.5°
Maximum altitude 19:35:29 52° 112° (ESE) 1,045 3.8 -20.2°
Drops below altitude 10° 19:40:56 10° 38° (NE) 2,462 6.1 -21.0°
Sets 19:43:25 0° 33° (NNE) 3,395 6.8 -21.3°
